Weather Roundup
Issued by NWS Springfield, MO

Home | Current Version | Previous Version | Text Only | Print | Product List | Glossary On
Versions: 1 2 3 4 5 6 7 8 9 10 11 12 13 14 15 16 17 18 19 20 21 22 23 24 25 26 27 28 29 30 31 32 33 34 35 36 37 38 39 40 41 42 43 44 45 46 47 48 49 50
000
NZUS99 KSGF 241407
HRRSGF

HOURLY WEATHER
NATIONAL WEATHER SERVICE SPRINGFIELD MO
800 AM CST TUE JAN 24 2017

......SGF CWA......

CITY           SKY/WX    TMP DP  RH WIND       PRES   REMARKS
SPRINGFIELD    CLEAR     40  33  76 SE21G26   29.73R WCI  30
JOPLIN         CLEAR     42  34  73 SE14G23   29.65F
WEST PLAINS    CLEAR     33  32  96 SE5       29.85S WCI  29
ROLLA          CLEAR     30  30 100 SE15      29.81F WCI  19
OSAGE BEACH    CLEAR     32  31  96 E5        29.82R WCI  27
BRANSON        PTCLDY    36  34  93 SE13      29.78R WCI  27

......SURROUNDING SGF CWA......

CITY           SKY/WX    TMP DP  RH WIND       PRES   REMARKS
CHANUTE        CLEAR     39  32  76 SE12      29.62F WCI  32
PARSONS        CLEAR     42  33  70 SE5       29.64R
COFFEYVILLE    CLEAR     41  34  76 SE7       29.63R
EMPORIA        CLEAR     34  31  88 E14       29.58F WCI  25
GROVE OK       CLEAR     43  36  75 E3        29.68R
ROGERS AR      CLOUDY    43  35  73 SE12      29.71S
SILOAM SPRINGS CLOUDY    45  34  65 SE13      29.69R
HARRISON AR    CLEAR     34  32  92 SE7       29.78R WCI  28
NEAR YELLVILLE CLEAR     32  27  80 CALM      29.82R

......KANSAS AND MISSOURI......

CITY           SKY/WX    TMP DP  RH WIND       PRES   REMARKS
KANSAS CTY INT CLOUDY    31  28  89 E15       29.72S FOG     WCI  20
DOWNTOWN KC    CLOUDY    33  31  92 E16G22    29.72F FOG     WCI  23
COLUMBIA       CLEAR     34  32  92 E13       29.82S WCI  25
SEDALIA        CLOUDY    33  32  96 E15       29.79F FOG     WCI  23
ST JOSEPH      CLOUDY    32  32 100 E8G20     29.74S FOG     WCI  25
ST LOUIS       MOCLDY    37  30  75 SE6       29.91R WCI  32
SPIRIT OF STL  CLOUDY    37  34  89 CALM      29.90R
KIRKSVILLE     CLOUDY    31  29  92 E7        29.84S WCI  24
WICHITA        PTCLDY    39  33  79 S10       29.51F WCI  32
TOPEKA         CLEAR     34  30  85 E14       29.67S WCI  25
OLATHE         CLEAR     31  30  96 E10       29.69F WCI  22

......TENNESSEE......

CITY           SKY/WX    TMP DP  RH WIND       PRES   REMARKS
MEMPHIS        PTCLDY    41  37  86 VRB7      29.91S
NASHVILLE      CLOUDY    42  33  70 N7        29.95R

......ARKANSAS.......

CITY           SKY/WX    TMP DP  RH WIND       PRES   REMARKS
FAYETTEVILLE   CLEAR     50  34  54 VRB3      29.72R
FT SMITH       PTCLDY    42  36  79 E10       29.77R
LITTLE ROCK    PTCLDY    38  38 100 CALM      29.87S

......OKLAHOMA.......

CITY           SKY/WX    TMP DP  RH WIND       PRES   REMARKS
TULSA          PTCLDY    47  35  63 S14       29.64R
PONCA CITY     CLEAR     47  34  60 SE16      29.54F
MCALESTER      PTCLDY    56  34  43 SE10G17   29.68F
OKLAHOMA CITY  CLOUDY    42  36  79 S9        29.58S

......IOWA............

CITY           SKY/WX    TMP DP  RH WIND       PRES   REMARKS
DES MOINES     CLOUDY    32  28  85 E8        29.84F WCI  25
QUAD CITIES    CLOUDY    34  30  85 CALM      29.88F

......ILLINOIS........

CITY           SKY/WX    TMP DP  RH WIND       PRES   REMARKS
QUINCY         CLOUDY    33  30  88 SE8       29.86F WCI  26
CHICAGO        CLOUDY    35  31  85 NW8       29.88R WCI  29



USA.gov is the U.S. government's official web portal to all federal, state and local government web resources and services.